owner,sensor,date,latitude,longitude,air_temperature,qcFlag 
COMPS,ioos:station:USF.COMPS:ANM:1,2011-09-01T00:00:00Z,27.5400,-82.7400,27.19,1111122 
COMPS,ioos:station:USF.COMPS:ANM:1,2011-09-01T00:06:00Z,27.5400,-82.7400,27.16,1111122 
COMPS,ioos:station:USF.COMPS:ANM:1,2011-09-01T00:12:00Z,27.5400,-82.7400,27.25,1111122 
COMPS,ioos:station:USF.COMPS:ANM:1,2011-09-01T00:18:00Z,27.5400,-82.7400,27.21,1111122 
COMPS,ioos:station:USF.COMPS:ANM:1,2011-09-01T00:24:00Z,27.5400,-82.7400,27.06,1111122 
COMPS,ioos:station:USF.COMPS:ANM:1,2011-09-01T00:30:00Z,27.5400,-82.7400,27.11,1111122 
COMPS,ioos:station:USF.COMPS:ANM:1,2011-09-01T00:36:00Z,27.5400,-82.7400,26.89,1111122 
COMPS,ioos:station:USF.COMPS:ANM:1,2011-09-01T00:42:00Z,27.5400,-82.7400,26.85,1111122 
COMPS,ioos:station:USF.COMPS:ANM:1,2011-09-01T00:48:00Z,27.5400,-82.7400,26.69,1111122 
COMPS,ioos:station:USF.COMPS:ANM:1,2011-09-01T00:54:00Z,27.5400,-82.7400,26.68,1111122 
COMPS,ioos:station:USF.COMPS:ANM:1,2011-09-01T01:00:00Z,27.5400,-82.7400,26.66,1111122 
COMPS,ioos:station:USF.COMPS:ANM:1,2011-09-01T01:06:00Z,27.5400,-82.7400,26.64,1111122 
COMPS,ioos:station:USF.COMPS:ANM:1,2011-09-01T01:12:00Z,27.5400,-82.7400,26.57,1111122 
COMPS,ioos:station:USF.COMPS:ANM:1,2011-09-01T01:18:00Z,27.5400,-82.7400,26.43,1111122 
COMPS,ioos:station:USF.COMPS:ANM:1,2011-09-01T01:24:00Z,27.5400,-82.7400,26.28,1111122 
COMPS,ioos:station:USF.COMPS:ANM:1,2011-09-01T01:30:00Z,27.5400,-82.7400,26.21,1111122 
COMPS,ioos:station:USF.COMPS:ANM:1,2011-09-01T01:36:00Z,27.5400,-82.7400,26.11,1111122 
COMPS,ioos:station:USF.COMPS:ANM:1,2011-09-01T01:42:00Z,27.5400,-82.7400,26.03,1111122 
COMPS,ioos:station:USF.COMPS:ANM:1,2011-09-01T01:48:00Z,27.5400,-82.7400,26.07,1111122 
COMPS,ioos:station:USF.COMPS:ANM:1,2011-09-01T01:54:00Z,27.5400,-82.7400,26.15,1111122 
COMPS,ioos:station:USF.COMPS:ANM:1,2011-09-01T02:00:00Z,27.5400,-82.7400,26.22,1111122 
COMPS,ioos:station:USF.COMPS:ANM:1,2011-09-01T02:06:00Z,27.5400,-82.7400,26.22,1111122 
COMPS,ioos:station:USF.COMPS:ANM:1,2011-09-01T02:12:00Z,27.5400,-82.7400,26.13,1111122 
COMPS,ioos:station:USF.COMPS:ANM:1,2011-09-01T02:18:00Z,27.5400,-82.7400,26.05,1111122 
COMPS,ioos:station:USF.COMPS:ANM:1,2011-09-01T02:24:00Z,27.5400,-82.7400,26.18,1111122 
COMPS,ioos:station:USF.COMPS:ANM:1,2011-09-01T02:30:00Z,27.5400,-82.7400,26.08,1111122 
COMPS,ioos:station:USF.COMPS:ANM:1,2011-09-01T02:36:00Z,27.5400,-82.7400,26.13,1111122 
COMPS,ioos:station:USF.COMPS:ANM:1,2011-09-01T02:42:00Z,27.5400,-82.7400,26.16,1111122 
COMPS,ioos:station:USF.COMPS:ANM:1,2011-09-01T02:48:00Z,27.5400,-82.7400,26.16,1111122 
COMPS,ioos:station:USF.COMPS:ANM:1,2011-09-01T02:54:00Z,27.5400,-82.7400,26.17,1111122 
COMPS,ioos:station:USF.COMPS:ANM:1,2011-09-01T03:00:00Z,27.5400,-82.7400,26.28,1111122 
COMPS,ioos:station:USF.COMPS:ANM:1,2011-09-01T03:06:00Z,27.5400,-82.7400,26.23,1111122 
COMPS,ioos:station:USF.COMPS:ANM:1,2011-09-01T03:12:00Z,27.5400,-82.7400,26.19,1111122 
COMPS,ioos:station:USF.COMPS:ANM:1,2011-09-01T03:18:00Z,27.5400,-82.7400,26.09,1111122 
COMPS,ioos:station:USF.COMPS:ANM:1,2011-09-01T03:24:00Z,27.5400,-82.7400,26.07,1111122 
COMPS,ioos:station:USF.COMPS:ANM:1,2011-09-01T03:30:00Z,27.5400,-82.7400,26.05,1111122 
COMPS,ioos:station:USF.COMPS:ANM:1,2011-09-01T03:36:00Z,27.5400,-82.7400,26.05,1111122 
COMPS,ioos:station:USF.COMPS:ANM:1,2011-09-01T03:42:00Z,27.5400,-82.7400,26.06,1111122 
COMPS,ioos:station:USF.COMPS:ANM:1,2011-09-01T03:48:00Z,27.5400,-82.7400,26.1,1111122 
COMPS,ioos:station:USF.COMPS:ANM:1,2011-09-01T03:54:00Z,27.5400,-82.7400,26.09,1111122 
COMPS,ioos:station:USF.COMPS:ANM:1,2011-09-01T19:00:00Z,27.5400,-82.7400,29.64,1111122 
COMPS,ioos:station:USF.COMPS:ANM:1,2011-09-01T19:06:00Z,27.5400,-82.7400,29.86,1111122 
COMPS,ioos:station:USF.COMPS:ANM:1,2011-09-01T19:12:00Z,27.5400,-82.7400,29.68,1111122 
COMPS,ioos:station:USF.COMPS:ANM:1,2011-09-01T19:18:00Z,27.5400,-82.7400,29.83,1111122 
COMPS,ioos:station:USF.COMPS:ANM:1,2011-09-01T19:24:00Z,27.5400,-82.7400,29.66,1111122 
COMPS,ioos:station:USF.COMPS:ANM:1,2011-09-01T19:30:00Z,27.5400,-82.7400,29.94,1111122 
COMPS,ioos:station:USF.COMPS:ANM:1,2011-09-01T19:36:00Z,27.5400,-82.7400,30.04,1111122 
COMPS,ioos:station:USF.COMPS:ANM:1,2011-09-01T19:42:00Z,27.5400,-82.7400,29.76,1111122 
COMPS,ioos:station:USF.COMPS:ANM:1,2011-09-01T19:48:00Z,27.5400,-82.7400,29.93,1111122 
COMPS,ioos:station:USF.COMPS:ANM:1,2011-09-01T19:54:00Z,27.5400,-82.7400,29.85,1111122 
COMPS,ioos:station:USF.COMPS:ANM:1,2011-09-01T20:00:00Z,27.5400,-82.7400,29.77,1111122 
COMPS,ioos:station:USF.COMPS:ANM:1,2011-09-01T20:06:00Z,27.5400,-82.7400,29.96,1111122 
COMPS,ioos:station:USF.COMPS:ANM:1,2011-09-01T20:12:00Z,27.5400,-82.7400,30.12,1111122 
COMPS,ioos:station:USF.COMPS:ANM:1,2011-09-01T20:18:00Z,27.5400,-82.7400,30.07,1111122 
COMPS,ioos:station:USF.COMPS:ANM:1,2011-09-01T20:24:00Z,27.5400,-82.7400,30.0,1111122 
COMPS,ioos:station:USF.COMPS:ANM:1,2011-09-01T20:30:00Z,27.5400,-82.7400,30.18,1111122 
COMPS,ioos:station:USF.COMPS:ANM:1,2011-09-01T20:36:00Z,27.5400,-82.7400,30.1,1111122 
COMPS,ioos:station:USF.COMPS:ANM:1,2011-09-01T20:42:00Z,27.5400,-82.7400,29.86,1111122 
COMPS,ioos:station:USF.COMPS:ANM:1,2011-09-01T20:48:00Z,27.5400,-82.7400,29.81,1111122 
COMPS,ioos:station:USF.COMPS:ANM:1,2011-09-01T20:54:00Z,27.5400,-82.7400,29.96,1111122 
COMPS,ioos:station:USF.COMPS:ANM:1,2011-09-01T21:00:00Z,27.5400,-82.7400,29.88,1111122 
COMPS,ioos:station:USF.COMPS:ANM:1,2011-09-01T21:06:00Z,27.5400,-82.7400,29.89,1111122 
COMPS,ioos:station:USF.COMPS:ANM:1,2011-09-01T21:12:00Z,27.5400,-82.7400,29.71,1111122 
COMPS,ioos:station:USF.COMPS:ANM:1,2011-09-01T21:18:00Z,27.5400,-82.7400,29.65,1111122 
COMPS,ioos:station:USF.COMPS:ANM:1,2011-09-01T21:24:00Z,27.5400,-82.7400,29.46,1111122 
COMPS,ioos:station:USF.COMPS:ANM:1,2011-09-01T21:30:00Z,27.5400,-82.7400,29.32,1111122 
COMPS,ioos:station:USF.COMPS:ANM:1,2011-09-01T21:36:00Z,27.5400,-82.7400,29.22,1111122 
COMPS,ioos:station:USF.COMPS:ANM:1,2011-09-01T21:42:00Z,27.5400,-82.7400,29.19,1111122 
COMPS,ioos:station:USF.COMPS:ANM:1,2011-09-01T21:48:00Z,27.5400,-82.7400,29.25,1111122 
COMPS,ioos:station:USF.COMPS:ANM:1,2011-09-01T21:54:00Z,27.5400,-82.7400,29.28,1111122 
COMPS,ioos:station:USF.COMPS:ANM:1,2011-09-01T22:00:00Z,27.5400,-82.7400,27.94,1111122 
COMPS,ioos:station:USF.COMPS:ANM:1,2011-09-01T22:06:00Z,27.5400,-82.7400,27.52,1111122 
COMPS,ioos:station:USF.COMPS:ANM:1,2011-09-01T22:12:00Z,27.5400,-82.7400,28.0,1111122 
COMPS,ioos:station:USF.COMPS:ANM:1,2011-09-01T22:18:00Z,27.5400,-82.7400,28.2,1111122 
COMPS,ioos:station:USF.COMPS:ANM:1,2011-09-01T22:24:00Z,27.5400,-82.7400,28.1,1111122 
COMPS,ioos:station:USF.COMPS:ANM:1,2011-09-01T22:30:00Z,27.5400,-82.7400,28.16,1111122 
COMPS,ioos:station:USF.COMPS:ANM:1,2011-09-01T22:36:00Z,27.5400,-82.7400,27.64,1111122 
COMPS,ioos:station:USF.COMPS:ANM:1,2011-09-01T22:42:00Z,27.5400,-82.7400,27.69,1111122 
COMPS,ioos:station:USF.COMPS:ANM:1,2011-09-01T22:48:00Z,27.5400,-82.7400,27.75,1111122 
COMPS,ioos:station:USF.COMPS:ANM:1,2011-09-01T22:54:00Z,27.5400,-82.7400,28.03,1111122 
COMPS,ioos:station:USF.COMPS:ANM:1,2011-09-01T23:00:00Z,27.5400,-82.7400,28.2,1111122 
COMPS,ioos:station:USF.COMPS:ANM:1,2011-09-01T23:06:00Z,27.5400,-82.7400,28.17,1111122 
COMPS,ioos:station:USF.COMPS:ANM:1,2011-09-01T23:12:00Z,27.5400,-82.7400,27.96,1111122 
COMPS,ioos:station:USF.COMPS:ANM:1,2011-09-01T23:18:00Z,27.5400,-82.7400,27.86,1111122 
COMPS,ioos:station:USF.COMPS:ANM:1,2011-09-01T23:24:00Z,27.5400,-82.7400,27.42,1111122 
COMPS,ioos:station:USF.COMPS:ANM:1,2011-09-01T23:30:00Z,27.5400,-82.7400,27.22,1111122 
COMPS,ioos:station:USF.COMPS:ANM:1,2011-09-01T23:36:00Z,27.5400,-82.7400,26.8,1111122 
COMPS,ioos:station:USF.COMPS:ANM:1,2011-09-01T23:42:00Z,27.5400,-82.7400,26.81,1111122 
COMPS,ioos:station:USF.COMPS:ANM:1,2011-09-01T23:48:00Z,27.5400,-82.7400,27.0,1111122 
COMPS,ioos:station:USF.COMPS:ANM:1,2011-09-01T23:54:00Z,27.5400,-82.7400,26.66,1111122 
COMPS,ioos:station:USF.COMPS:ANM:1,2011-09-02T00:00:00Z,27.5400,-82.7400,26.29,1111122 
COMPS,ioos:station:USF.COMPS:ANM:1,2011-09-02T00:06:00Z,27.5400,-82.7400,25.99,1111122 
COMPS,ioos:station:USF.COMPS:ANM:1,2011-09-02T00:12:00Z,27.5400,-82.7400,25.6,1111122 
COMPS,ioos:station:USF.COMPS:ANM:1,2011-09-02T00:18:00Z,27.5400,-82.7400,25.47,1111122 
COMPS,ioos:station:USF.COMPS:ANM:1,2011-09-02T00:24:00Z,27.5400,-82.7400,25.63,1111122 
COMPS,ioos:station:USF.COMPS:ANM:1,2011-09-02T00:30:00Z,27.5400,-82.7400,25.69,1111122 
COMPS,ioos:station:USF.COMPS:ANM:1,2011-09-02T00:36:00Z,27.5400,-82.7400,25.67,1111122 
COMPS,ioos:station:USF.COMPS:ANM:1,2011-09-02T00:42:00Z,27.5400,-82.7400,25.55,1111122 
COMPS,ioos:station:USF.COMPS:ANM:1,2011-09-02T00:48:00Z,27.5400,-82.7400,25.27,1111122 
COMPS,ioos:station:USF.COMPS:ANM:1,2011-09-02T00:54:00Z,27.5400,-82.7400,25.38,1111122 
COMPS,ioos:station:USF.COMPS:ANM:1,2011-09-02T01:00:00Z,27.5400,-82.7400,25.33,1111122 
COMPS,ioos:station:USF.COMPS:ANM:1,2011-09-02T01:06:00Z,27.5400,-82.7400,25.31,1111122 
COMPS,ioos:station:USF.COMPS:ANM:1,2011-09-02T01:12:00Z,27.5400,-82.7400,25.27,1111122 
COMPS,ioos:station:USF.COMPS:ANM:1,2011-09-02T01:18:00Z,27.5400,-82.7400,25.36,1111122 
COMPS,ioos:station:USF.COMPS:ANM:1,2011-09-02T01:24:00Z,27.5400,-82.7400,25.37,1111122 
COMPS,ioos:station:USF.COMPS:ANM:1,2011-09-02T01:30:00Z,27.5400,-82.7400,25.34,1111122 
COMPS,ioos:station:USF.COMPS:ANM:1,2011-09-02T01:36:00Z,27.5400,-82.7400,25.44,1111122 
COMPS,ioos:station:USF.COMPS:ANM:1,2011-09-02T01:42:00Z,27.5400,-82.7400,25.4,1111122 
COMPS,ioos:station:USF.COMPS:ANM:1,2011-09-02T01:48:00Z,27.5400,-82.7400,25.3,1111122 
COMPS,ioos:station:USF.COMPS:ANM:1,2011-09-02T01:54:00Z,27.5400,-82.7400,25.29,1111122 
COMPS,ioos:station:USF.COMPS:ANM:1,2011-09-02T02:00:00Z,27.5400,-82.7400,25.26,1111122 
COMPS,ioos:station:USF.COMPS:ANM:1,2011-09-02T02:06:00Z,27.5400,-82.7400,25.25,1111122 
COMPS,ioos:station:USF.COMPS:ANM:1,2011-09-02T02:12:00Z,27.5400,-82.7400,25.36,1111122 
COMPS,ioos:station:USF.COMPS:ANM:1,2011-09-02T02:18:00Z,27.5400,-82.7400,25.32,1111122 
COMPS,ioos:station:USF.COMPS:ANM:1,2011-09-02T02:24:00Z,27.5400,-82.7400,25.27,1111122 
COMPS,ioos:station:USF.COMPS:ANM:1,2011-09-02T02:30:00Z,27.5400,-82.7400,25.26,1111122 
COMPS,ioos:station:USF.COMPS:ANM:1,2011-09-02T02:36:00Z,27.5400,-82.7400,25.33,1111122 
COMPS,ioos:station:USF.COMPS:ANM:1,2011-09-02T02:42:00Z,27.5400,-82.7400,25.4,1111122 
COMPS,ioos:station:USF.COMPS:ANM:1,2011-09-02T02:48:00Z,27.5400,-82.7400,25.42,1111122 
COMPS,ioos:station:USF.COMPS:ANM:1,2011-09-02T02:54:00Z,27.5400,-82.7400,25.28,1111122 
COMPS,ioos:station:USF.COMPS:ANM:1,2011-09-02T03:00:00Z,27.5400,-82.7400,25.17,1111122 
COMPS,ioos:station:USF.COMPS:ANM:1,2011-09-02T03:06:00Z,27.5400,-82.7400,25.18,1111122 
COMPS,ioos:station:USF.COMPS:ANM:1,2011-09-02T03:12:00Z,27.5400,-82.7400,25.12,1111122 
COMPS,ioos:station:USF.COMPS:ANM:1,2011-09-02T03:18:00Z,27.5400,-82.7400,25.14,1111122 
COMPS,ioos:station:USF.COMPS:ANM:1,2011-09-02T03:24:00Z,27.5400,-82.7400,25.08,1111122 
COMPS,ioos:station:USF.COMPS:ANM:1,2011-09-02T03:30:00Z,27.5400,-82.7400,25.02,1111122 
COMPS,ioos:station:USF.COMPS:ANM:1,2011-09-02T03:36:00Z,27.5400,-82.7400,25.04,1111122 
COMPS,ioos:station:USF.COMPS:ANM:1,2011-09-02T03:42:00Z,27.5400,-82.7400,25.22,1111122 
COMPS,ioos:station:USF.COMPS:ANM:1,2011-09-02T03:48:00Z,27.5400,-82.7400,25.28,1111122 
COMPS,ioos:station:USF.COMPS:ANM:1,2011-09-02T03:54:00Z,27.5400,-82.7400,25.36,1111122 
COMPS,ioos:station:USF.COMPS:ANM:1,2011-09-02T04:00:00Z,27.5400,-82.7400,25.56,1111122 
COMPS,ioos:station:USF.COMPS:ANM:1,2011-09-02T04:06:00Z,27.5400,-82.7400,25.7,1111122 
COMPS,ioos:station:USF.COMPS:ANM:1,2011-09-02T04:12:00Z,27.5400,-82.7400,25.79,1111122 
COMPS,ioos:station:USF.COMPS:ANM:1,2011-09-02T04:18:00Z,27.5400,-82.7400,25.66,1111122 
COMPS,ioos:station:USF.COMPS:ANM:1,2011-09-02T04:24:00Z,27.5400,-82.7400,25.49,1111122 
COMPS,ioos:station:USF.COMPS:ANM:1,2011-09-02T04:30:00Z,27.5400,-82.7400,25.67,1111122 
COMPS,ioos:station:USF.COMPS:ANM:1,2011-09-02T04:36:00Z,27.5400,-82.7400,25.75,1111122 
COMPS,ioos:station:USF.COMPS:ANM:1,2011-09-02T04:42:00Z,27.5400,-82.7400,25.68,1111122 
COMPS,ioos:station:USF.COMPS:ANM:1,2011-09-02T04:48:00Z,27.5400,-82.7400,25.65,1111122 
COMPS,ioos:station:USF.COMPS:ANM:1,2011-09-02T04:54:00Z,27.5400,-82.7400,25.78,1111122 
COMPS,ioos:station:USF.COMPS:ANM:1,2011-09-02T05:00:00Z,27.5400,-82.7400,25.81,1111122 
COMPS,ioos:station:USF.COMPS:ANM:1,2011-09-02T05:06:00Z,27.5400,-82.7400,25.73,1111122 
COMPS,ioos:station:USF.COMPS:ANM:1,2011-09-02T05:12:00Z,27.5400,-82.7400,25.65,1111122 
COMPS,ioos:station:USF.COMPS:ANM:1,2011-09-02T05:18:00Z,27.5400,-82.7400,25.63,1111122 
COMPS,ioos:station:USF.COMPS:ANM:1,2011-09-02T05:24:00Z,27.5400,-82.7400,25.67,1111122 
COMPS,ioos:station:USF.COMPS:ANM:1,2011-09-02T05:30:00Z,27.5400,-82.7400,25.7,1111122 
COMPS,ioos:station:USF.COMPS:ANM:1,2011-09-02T05:36:00Z,27.5400,-82.7400,25.72,1111122 
COMPS,ioos:station:USF.COMPS:ANM:1,2011-09-02T05:42:00Z,27.5400,-82.7400,25.59,1111122 
COMPS,ioos:station:USF.COMPS:ANM:1,2011-09-02T05:48:00Z,27.5400,-82.7400,25.59,1111122 
COMPS,ioos:station:USF.COMPS:ANM:1,2011-09-02T05:54:00Z,27.5400,-82.7400,25.75,1111122 
COMPS,ioos:station:USF.COMPS:ANM:1,2011-09-02T06:00:00Z,27.5400,-82.7400,25.76,1111122 
COMPS,ioos:station:USF.COMPS:ANM:1,2011-09-02T06:06:00Z,27.5400,-82.7400,25.85,1111122 
COMPS,ioos:station:USF.COMPS:ANM:1,2011-09-02T06:12:00Z,27.5400,-82.7400,26.0,1111122 
COMPS,ioos:station:USF.COMPS:ANM:1,2011-09-02T06:18:00Z,27.5400,-82.7400,26.02,1111122 
COMPS,ioos:station:USF.COMPS:ANM:1,2011-09-02T06:24:00Z,27.5400,-82.7400,26.06,1111122 
COMPS,ioos:station:USF.COMPS:ANM:1,2011-09-02T06:30:00Z,27.5400,-82.7400,26.11,1111122 
COMPS,ioos:station:USF.COMPS:ANM:1,2011-09-02T06:36:00Z,27.5400,-82.7400,26.21,1111122 
COMPS,ioos:station:USF.COMPS:ANM:1,2011-09-02T06:42:00Z,27.5400,-82.7400,26.16,1111122 
COMPS,ioos:station:USF.COMPS:ANM:1,2011-09-02T06:48:00Z,27.5400,-82.7400,26.02,1111122 
COMPS,ioos:station:USF.COMPS:ANM:1,2011-09-02T06:54:00Z,27.5400,-82.7400,25.99,1111122 
COMPS,ioos:station:USF.COMPS:ANM:1,2011-09-02T07:00:00Z,27.5400,-82.7400,25.97,1111122 
COMPS,ioos:station:USF.COMPS:ANM:1,2011-09-02T07:06:00Z,27.5400,-82.7400,25.89,1111122 
COMPS,ioos:station:USF.COMPS:ANM:1,2011-09-02T07:12:00Z,27.5400,-82.7400,25.74,1111122 
COMPS,ioos:station:USF.COMPS:ANM:1,2011-09-02T07:18:00Z,27.5400,-82.7400,25.7,1111122 
COMPS,ioos:station:USF.COMPS:ANM:1,2011-09-02T07:24:00Z,27.5400,-82.7400,25.62,1111122 
COMPS,ioos:station:USF.COMPS:ANM:1,2011-09-02T07:30:00Z,27.5400,-82.7400,25.58,1111122 
COMPS,ioos:station:USF.COMPS:ANM:1,2011-09-02T07:36:00Z,27.5400,-82.7400,25.62,1111122 
COMPS,ioos:station:USF.COMPS:ANM:1,2011-09-02T07:42:00Z,27.5400,-82.7400,25.67,1111122 
COMPS,ioos:station:USF.COMPS:ANM:1,2011-09-02T07:48:00Z,27.5400,-82.7400,25.69,1111122 
COMPS,ioos:station:USF.COMPS:ANM:1,2011-09-02T07:54:00Z,27.5400,-82.7400,25.56,1111122 
COMPS,ioos:station:USF.COMPS:ANM:1,2011-09-02T08:00:00Z,27.5400,-82.7400,25.67,1111122 
COMPS,ioos:station:USF.COMPS:ANM:1,2011-09-02T08:06:00Z,27.5400,-82.7400,25.58,1111122 
COMPS,ioos:station:USF.COMPS:ANM:1,2011-09-02T08:12:00Z,27.5400,-82.7400,25.5,1111122 
COMPS,ioos:station:USF.COMPS:ANM:1,2011-09-02T08:18:00Z,27.5400,-82.7400,25.47,1111122 
COMPS,ioos:station:USF.COMPS:ANM:1,2011-09-02T08:24:00Z,27.5400,-82.7400,25.42,1111122 
COMPS,ioos:station:USF.COMPS:ANM:1,2011-09-02T08:30:00Z,27.5400,-82.7400,25.32,1111122 
COMPS,ioos:station:USF.COMPS:ANM:1,2011-09-02T08:36:00Z,27.5400,-82.7400,25.3,1111122 
COMPS,ioos:station:USF.COMPS:ANM:1,2011-09-02T08:42:00Z,27.5400,-82.7400,25.25,1111122 
COMPS,ioos:station:USF.COMPS:ANM:1,2011-09-02T08:48:00Z,27.5400,-82.7400,25.29,1111122 
COMPS,ioos:station:USF.COMPS:ANM:1,2011-09-02T08:54:00Z,27.5400,-82.7400,25.33,1111122 
COMPS,ioos:station:USF.COMPS:ANM:1,2011-09-02T09:00:00Z,27.5400,-82.7400,25.3,1111122 
COMPS,ioos:station:USF.COMPS:ANM:1,2011-09-02T09:06:00Z,27.5400,-82.7400,25.28,1111122 
COMPS,ioos:station:USF.COMPS:ANM:1,2011-09-02T09:12:00Z,27.5400,-82.7400,25.24,1111122 
COMPS,ioos:station:USF.COMPS:ANM:1,2011-09-02T09:18:00Z,27.5400,-82.7400,25.27,1111122 
COMPS,ioos:station:USF.COMPS:ANM:1,2011-09-02T09:24:00Z,27.5400,-82.7400,25.27,1111122 
COMPS,ioos:station:USF.COMPS:ANM:1,2011-09-02T09:30:00Z,27.5400,-82.7400,25.11,1111122 
COMPS,ioos:station:USF.COMPS:ANM:1,2011-09-02T09:36:00Z,27.5400,-82.7400,25.15,1111122 
COMPS,ioos:station:USF.COMPS:ANM:1,2011-09-02T09:42:00Z,27.5400,-82.7400,25.1,1111122 
COMPS,ioos:station:USF.COMPS:ANM:1,2011-09-02T09:48:00Z,27.5400,-82.7400,25.18,1111122 
COMPS,ioos:station:USF.COMPS:ANM:1,2011-09-02T09:54:00Z,27.5400,-82.7400,25.24,1111122 
COMPS,ioos:station:USF.COMPS:ANM:1,2011-09-02T10:00:00Z,27.5400,-82.7400,25.27,1111122 
COMPS,ioos:station:USF.COMPS:ANM:1,2011-09-02T10:06:00Z,27.5400,-82.7400,25.26,1111122 
COMPS,ioos:station:USF.COMPS:ANM:1,2011-09-02T10:12:00Z,27.5400,-82.7400,25.27,1111122 
COMPS,ioos:station:USF.COMPS:ANM:1,2011-09-02T10:18:00Z,27.5400,-82.7400,25.22,1111122 
COMPS,ioos:station:USF.COMPS:ANM:1,2011-09-02T10:24:00Z,27.5400,-82.7400,25.2,1111122 
COMPS,ioos:station:USF.COMPS:ANM:1,2011-09-02T10:30:00Z,27.5400,-82.7400,25.18,1111122 
COMPS,ioos:station:USF.COMPS:ANM:1,2011-09-02T10:36:00Z,27.5400,-82.7400,25.2,1111122 
COMPS,ioos:station:USF.COMPS:ANM:1,2011-09-02T10:42:00Z,27.5400,-82.7400,25.12,1111122 
COMPS,ioos:station:USF.COMPS:ANM:1,2011-09-02T10:48:00Z,27.5400,-82.7400,25.1,1111122 
COMPS,ioos:station:USF.COMPS:ANM:1,2011-09-02T10:54:00Z,27.5400,-82.7400,25.11,1111122 
COMPS,ioos:station:USF.COMPS:ANM:1,2011-09-02T11:00:00Z,27.5400,-82.7400,24.98,1111122 
COMPS,ioos:station:USF.COMPS:ANM:1,2011-09-02T11:06:00Z,27.5400,-82.7400,25.04,1111122 
COMPS,ioos:station:USF.COMPS:ANM:1,2011-09-02T11:12:00Z,27.5400,-82.7400,24.92,1111122 
COMPS,ioos:station:USF.COMPS:ANM:1,2011-09-02T11:18:00Z,27.5400,-82.7400,24.88,1111122 
COMPS,ioos:station:USF.COMPS:ANM:1,2011-09-02T11:24:00Z,27.5400,-82.7400,24.81,1111122 
COMPS,ioos:station:USF.COMPS:ANM:1,2011-09-02T11:30:00Z,27.5400,-82.7400,24.89,1111122 
COMPS,ioos:station:USF.COMPS:ANM:1,2011-09-02T11:36:00Z,27.5400,-82.7400,24.86,1111122 
COMPS,ioos:station:USF.COMPS:ANM:1,2011-09-02T11:42:00Z,27.5400,-82.7400,25.0,1111122 
COMPS,ioos:station:USF.COMPS:ANM:1,2011-09-02T11:48:00Z,27.5400,-82.7400,25.03,1111122 
COMPS,ioos:station:USF.COMPS:ANM:1,2011-09-02T11:54:00Z,27.5400,-82.7400,24.92,1111122 
COMPS,ioos:station:USF.COMPS:ANM:1,2011-09-02T12:00:00Z,27.5400,-82.7400,24.94,1111122 
COMPS,ioos:station:USF.COMPS:ANM:1,2011-09-02T12:06:00Z,27.5400,-82.7400,24.98,1111122 
COMPS,ioos:station:USF.COMPS:ANM:1,2011-09-02T12:12:00Z,27.5400,-82.7400,25.02,1111122 
COMPS,ioos:station:USF.COMPS:ANM:1,2011-09-02T12:18:00Z,27.5400,-82.7400,25.01,1111122 
COMPS,ioos:station:USF.COMPS:ANM:1,2011-09-02T12:24:00Z,27.5400,-82.7400,25.11,1111122 
COMPS,ioos:station:USF.COMPS:ANM:1,2011-09-02T12:30:00Z,27.5400,-82.7400,25.1,1111122 
COMPS,ioos:station:USF.COMPS:ANM:1,2011-09-02T12:36:00Z,27.5400,-82.7400,25.17,1111122 
COMPS,ioos:station:USF.COMPS:ANM:1,2011-09-02T12:42:00Z,27.5400,-82.7400,25.15,1111122 
COMPS,ioos:station:USF.COMPS:ANM:1,2011-09-02T12:48:00Z,27.5400,-82.7400,25.08,1111122 
COMPS,ioos:station:USF.COMPS:ANM:1,2011-09-02T12:54:00Z,27.5400,-82.7400,25.14,1111122 
COMPS,ioos:station:USF.COMPS:ANM:1,2011-09-02T13:00:00Z,27.5400,-82.7400,25.21,1111122 
COMPS,ioos:station:USF.COMPS:ANM:1,2011-09-02T13:06:00Z,27.5400,-82.7400,25.28,1111122 
COMPS,ioos:station:USF.COMPS:ANM:1,2011-09-02T13:12:00Z,27.5400,-82.7400,25.23,1111122 
COMPS,ioos:station:USF.COMPS:ANM:1,2011-09-02T13:18:00Z,27.5400,-82.7400,25.33,1111122 
COMPS,ioos:station:USF.COMPS:ANM:1,2011-09-02T13:24:00Z,27.5400,-82.7400,25.43,1111122 
COMPS,ioos:station:USF.COMPS:ANM:1,2011-09-02T13:30:00Z,27.5400,-82.7400,25.54,1111122 
COMPS,ioos:station:USF.COMPS:ANM:1,2011-09-02T13:36:00Z,27.5400,-82.7400,25.65,1111122 
COMPS,ioos:station:USF.COMPS:ANM:1,2011-09-02T13:42:00Z,27.5400,-82.7400,25.61,1111122 
COMPS,ioos:station:USF.COMPS:ANM:1,2011-09-02T13:48:00Z,27.5400,-82.7400,25.61,1111122 
COMPS,ioos:station:USF.COMPS:ANM:1,2011-09-02T13:54:00Z,27.5400,-82.7400,25.61,1111122 
COMPS,ioos:station:USF.COMPS:ANM:1,2011-09-02T14:00:00Z,27.5400,-82.7400,25.78,1111122 
COMPS,ioos:station:USF.COMPS:ANM:1,2011-09-02T14:06:00Z,27.5400,-82.7400,26.06,1111122 
COMPS,ioos:station:USF.COMPS:ANM:1,2011-09-02T14:12:00Z,27.5400,-82.7400,25.95,1111122 
COMPS,ioos:station:USF.COMPS:ANM:1,2011-09-02T14:18:00Z,27.5400,-82.7400,26.03,1111122 
COMPS,ioos:station:USF.COMPS:ANM:1,2011-09-02T14:24:00Z,27.5400,-82.7400,25.98,1111122 
COMPS,ioos:station:USF.COMPS:ANM:1,2011-09-02T14:30:00Z,27.5400,-82.7400,26.04,1111122 
COMPS,ioos:station:USF.COMPS:ANM:1,2011-09-02T14:36:00Z,27.5400,-82.7400,26.21,1111122 
COMPS,ioos:station:USF.COMPS:ANM:1,2011-09-02T14:42:00Z,27.5400,-82.7400,26.56,1111122 
COMPS,ioos:station:USF.COMPS:ANM:1,2011-09-02T14:48:00Z,27.5400,-82.7400,26.62,1111122 
COMPS,ioos:station:USF.COMPS:ANM:1,2011-09-02T14:54:00Z,27.5400,-82.7400,26.98,1111122 
COMPS,ioos:station:USF.COMPS:ANM:1,2011-09-02T15:00:00Z,27.5400,-82.7400,27.14,1111122 
COMPS,ioos:station:USF.COMPS:ANM:1,2011-09-02T15:06:00Z,27.5400,-82.7400,27.41,1111122 
COMPS,ioos:station:USF.COMPS:ANM:1,2011-09-02T15:12:00Z,27.5400,-82.7400,27.15,1111122 
COMPS,ioos:station:USF.COMPS:ANM:1,2011-09-02T15:18:00Z,27.5400,-82.7400,27.16,1111122 
COMPS,ioos:station:USF.COMPS:ANM:1,2011-09-02T15:24:00Z,27.5400,-82.7400,27.46,1111122 
COMPS,ioos:station:USF.COMPS:ANM:1,2011-09-02T15:30:00Z,27.5400,-82.7400,27.45,1111122 
COMPS,ioos:station:USF.COMPS:ANM:1,2011-09-02T15:36:00Z,27.5400,-82.7400,27.56,1111122 
COMPS,ioos:station:USF.COMPS:ANM:1,2011-09-02T15:42:00Z,27.5400,-82.7400,27.6,1111122 
COMPS,ioos:station:USF.COMPS:ANM:1,2011-09-02T15:48:00Z,27.5400,-82.7400,27.64,1111122 
COMPS,ioos:station:USF.COMPS:ANM:1,2011-09-02T15:54:00Z,27.5400,-82.7400,27.68,1111122 
COMPS,ioos:station:USF.COMPS:ANM:1,2011-09-02T16:00:00Z,27.5400,-82.7400,27.92,1111122 
COMPS,ioos:station:USF.COMPS:ANM:1,2011-09-02T16:06:00Z,27.5400,-82.7400,27.96,1111122 
COMPS,ioos:station:USF.COMPS:ANM:1,2011-09-02T16:12:00Z,27.5400,-82.7400,28.15,1111122 
COMPS,ioos:station:USF.COMPS:ANM:1,2011-09-02T16:18:00Z,27.5400,-82.7400,28.47,1111122 
COMPS,ioos:station:USF.COMPS:ANM:1,2011-09-02T16:24:00Z,27.5400,-82.7400,28.66,1111122 
COMPS,ioos:station:USF.COMPS:ANM:1,2011-09-02T16:30:00Z,27.5400,-82.7400,28.56,1111122 
COMPS,ioos:station:USF.COMPS:ANM:1,2011-09-02T16:36:00Z,27.5400,-82.7400,28.76,1111122 
COMPS,ioos:station:USF.COMPS:ANM:1,2011-09-02T16:42:00Z,27.5400,-82.7400,28.95,1111122 
COMPS,ioos:station:USF.COMPS:ANM:1,2011-09-02T16:48:00Z,27.5400,-82.7400,29.1,1111122 
COMPS,ioos:station:USF.COMPS:ANM:1,2011-09-02T16:54:00Z,27.5400,-82.7400,29.06,1111122 
COMPS,ioos:station:USF.COMPS:ANM:1,2011-09-02T17:00:00Z,27.5400,-82.7400,29.3,1111122 
COMPS,ioos:station:USF.COMPS:ANM:1,2011-09-02T17:06:00Z,27.5400,-82.7400,29.33,1111122 
COMPS,ioos:station:USF.COMPS:ANM:1,2011-09-02T17:12:00Z,27.5400,-82.7400,29.51,1111122 
COMPS,ioos:station:USF.COMPS:ANM:1,2011-09-02T17:18:00Z,27.5400,-82.7400,29.82,1111122 
COMPS,ioos:station:USF.COMPS:ANM:1,2011-09-02T17:24:00Z,27.5400,-82.7400,29.5,1111122 
COMPS,ioos:station:USF.COMPS:ANM:1,2011-09-02T17:30:00Z,27.5400,-82.7400,29.42,1111122 
COMPS,ioos:station:USF.COMPS:ANM:1,2011-09-02T17:36:00Z,27.5400,-82.7400,29.59,1111122 
COMPS,ioos:station:USF.COMPS:ANM:1,2011-09-02T17:42:00Z,27.5400,-82.7400,29.76,1111122 
COMPS,ioos:station:USF.COMPS:ANM:1,2011-09-02T17:48:00Z,27.5400,-82.7400,29.87,1111122 
COMPS,ioos:station:USF.COMPS:ANM:1,2011-09-02T17:54:00Z,27.5400,-82.7400,29.99,1111122 
COMPS,ioos:station:USF.COMPS:ANM:1,2011-09-02T18:00:00Z,27.5400,-82.7400,29.78,1111122 
COMPS,ioos:station:USF.COMPS:ANM:1,2011-09-02T18:06:00Z,27.5400,-82.7400,30.04,1111122 